Volver al catálogo

SL-12 DEB

LostHEO
NORAD 44561·DEBRIS·🇷🇺 Russia

Lanzado Sep 2, 2010 desde Baikonur Cosmodrome

Loading…

Próximos Pases (próximas 24 horas)

TLE

ObsoletoSource: Space-Track

Época: Oct 19, 2019, 11:01 UTC

1 44561U 10041AG  19292.45968067  .00012386  00000-0  17915-1 0  9998
2 44561  65.4875 271.3592 5779252  34.4603 352.1424  4.22359741  2249

Sigue SL-12 DEB en tiempo real con AllMySat

Download on the App Store